#timestamp,LO_Frequency,Hit,StdDev 
1693065615.3,286047000.5,N
1693065635.1,286047000.3,N
1693065655.9,286046999.8,N
1693065675.7,286047002.8,Y
1693065695.5,286047000.1,P
1693065715.4,286046999.7,P
1693065735.2,286047000.7,N
1693065755.0,286047005.1,Y
1693065755.9,286047005.1,P
1693065775.8,286047001.3,N
1693065795.6,286047002.3,N
1693065815.4,286047001.9,N
1693065835.3,286047001.7,N
1693065855.1,286047002.8,N
1693065875.8,286047002.7,N
1693065895.7,286047002.8,N
1693065915.5,286047000.6,N
1693065935.3,286047002.3,N
1693065955.2,286047000.1,N
1693065975.9,286047002.6,N
1693065995.7,286047002.1,N
1693066015.6,286047002.5,N
1693066035.4,286047000.0,N
1693066055.2,286047000.0,N
1693066075.1,286047000.0,N
1693066076.0,286047000.0,N
1693066095.8,286047000.1,N
1693066115.6,286047001.6,N
1693066135.5,286047000.1,N
1693066155.3,286047000.4,N
1693066175.1,286047002.7,N
1693066195.9,286046999.9,N
1693066215.7,286047034.9,Y
1693066235.5,286047022.7,P
1693066255.4,286047017.2,N
1693066275.2,286047008.1,N
1693066295.0,286047006.9,N
1693066295.9,286047006.9,N
1693066315.8,286047005.8,N
1693066335.6,286047004.2,N
1693066355.4,286047002.3,N
1693066375.3,286047000.3,N
1693066395.1,286046998.8,N
1693066415.8,286046998.9,N
1693066435.7,286046997.8,N
1693066455.5,286046996.8,N
1693066475.3,286046994.9,N
1693066495.2,286046996.2,N
1693066515.0,286046995.5,N
1693066515.9,286046995.5,N
1693066535.7,286046993.3,N
1693066555.6,286046994.5,N
1693066575.4,286046996.4,N
1693066595.2,286046993.3,N
1693066615.1,286046994.1,N
1693066616.0,286046994.1,N
1693066635.8,286046993.6,N
1693066655.6,286046993.9,N
1693066675.5,286046992.4,N
1693066695.3,286046992.6,N
1693066715.1,286046991.7,N
1693066735.9,286046991.8,N
1693066755.7,286046992.0,N
1693066775.5,286046991.7,N
1693066795.4,286046992.7,N
1693066815.2,286046992.0,N
1693066835.0,286046992.3,N
1693066835.9,286046992.3,N
1693066855.8,286046994.3,N
1693066875.6,286046994.3,N
1693066895.4,286046994.2,N
1693066915.3,286046994.2,N
1693066935.1,286046993.4,Y
1693066955.8,286046998.1,P
1693066975.7,286046998.2,N
1693066995.5,286046998.6,N
1693067015.3,286046998.9,N
1693067035.2,286047003.0,N
1693067055.0,286047002.6,N
1693067055.9,286047002.6,N
1693067075.7,286047002.8,N
1693067095.6,286047001.0,N
1693067115.4,286046999.7,N
1693067135.2,286047000.5,N
1693067155.1,286046999.7,N
1693067156.0,286046999.7,N
1693067175.8,286046999.9,N
1693067195.7,286047000.0,N
1693067215.5,286047000.6,N
1693067235.3,286047000.5,N
1693067255.2,286046998.4,N
1693067275.9,286046998.2,N
1693067295.7,286047001.0,N
1693067315.6,286046998.1,N
1693067335.4,286047001.1,N
1693067355.2,286047000.9,N
1693067375.1,286047001.5,N
1693067376.0,286047001.5,N
1693067395.8,286047000.1,N
1693067415.6,286047001.1,N
1693067435.5,286047000.4,N
1693067455.3,286047000.8,N
1693067475.1,286046999.8,N
1693067495.9,286047001.6,N
1693067515.7,286047001.9,N
1693067535.5,286047004.2,Y
1693067555.4,286047002.2,P
1693067575.2,286047002.3,N
1693067595.0,286047002.0,N
1693067595.9,286047002.0,N
1693067615.8,286047002.3,Y
1693067635.6,286047000.9,P
1693067655.4,286047000.6,N
1693067675.3,286046999.8,N
1693067695.1,286047000.0,N
1693067696.0,286047000.0,N
1693067715.8,286047002.4,Y
1693067735.7,286047000.8,P
1693067755.5,286047000.0,N
1693067775.3,286047000.6,N
1693067795.2,286047000.4,N
1693067815.9,286047000.3,N
1693067835.7,286046999.8,N
1693067855.6,286047000.0,N
1693067875.4,286047002.7,Y
1693067895.2,286047000.1,P
1693067915.1,286047002.8,P
1693067916.0,286047002.8,N
1693067935.8,286046999.7,N
1693067955.6,286046999.8,N
1693067975.5,286047000.4,N
1693067995.3,286047000.7,N
1693068015.1,286047000.9,N
1693068035.9,286047000.7,N
1693068055.7,286047000.6,N
1693068075.5,286047000.1,N
1693068095.4,286047002.6,N
1693068115.2,286046999.7,N
1693068135.0,286047002.4,N
1693068135.9,286047002.4,N
1693068155.8,286046999.7,N
1693068175.6,286047002.8,N
1693068195.4,286047002.7,N
1693068215.3,286047002.8,N
1693068235.1,286047001.7,N
1693068255.8,286047002.1,N
1693068275.7,286047002.1,N
1693068295.5,286047001.8,N
1693068315.3,286047001.3,N
1693068335.2,286047003.8,Y
1693068355.0,286047001.6,P
1693068355.9,286047001.6,P
1693068375.8,286047001.4,P
1693068395.6,286047003.6,Y
1693068415.4,286047002.1,P
1693068435.3,286047002.7,P
1693068455.1,286047001.3,N
1693068456.0,286047001.3,N
1693068475.8,286047001.3,N
1693068495.7,286047001.7,Y
1693068515.5,286046999.7,P
1693068535.3,286047002.0,N
1693068555.2,286047002.3,N
1693068575.9,286047000.3,N
1693068595.7,286047009.6,Y
1693068615.6,286047009.3,P
1693068635.4,286047007.2,N
1693068655.2,286047003.0,N
1693068675.1,286047003.9,N
1693068676.0,286047003.9,N
1693068695.8,286047003.5,N
1693068715.6,286047002.0,N
1693068735.5,286047002.1,N
1693068755.3,286046999.7,N
1693068775.1,286047002.8,N
1693068795.9,286047001.3,N
1693068815.7,286047001.3,N
1693068835.5,286047001.8,N
1693068855.4,286047001.3,N
1693068875.2,286047001.5,N
1693068895.0,286047001.3,N
1693068895.9,286047001.3,N
1693068915.8,286047002.6,N
1693068935.6,286047001.6,N
1693068955.4,286047003.6,N
1693068975.3,286047003.7,N
1693068995.1,286047002.1,N
1693069015.8,286047003.3,N
1693069035.7,286047001.9,N
1693069055.5,286047003.2,N
1693069075.3,286047004.8,N
1693069095.2,286047003.3,N
1693069115.9,286047005.5,N
1693069135.7,286047005.3,N
1693069155.6,286047003.0,N
1693069175.4,286047003.3,N
1693069195.2,286047003.8,N
